Regional Weather Roundup
Issued by NWS

Home | Current Version | Previous Version | Graphics & Text | Print | Product List | Glossary On
Versions: 1 2 3 4 5 6 7 8 9 10 11 12 13 14 15 16 17 18 19 20 21 22 23 24 25 26 27 28 29 30 31 32 33 34 35 36 37 38 39 40 41 42 43 44 45 46 47 48 49 50
000
ASUS43 KLMK 211510
RWRKY
KENTUCKY REGIONAL WEATHER ROUNDUP
NATIONAL WEATHER SERVICE LOUISVILLE KY
1100 AM EDT SAT OCT 21 2017

NOTE "FAIR" INDICATES FEW OR NO CLOUDS BELOW 12,000 FEET
WITH NO SIGNIFICANT WEATHER AND/OR OBSTRUCTIONS TO VISIBILITY.

KYZ001>023-026-027-061>063-070>075-211600-
WESTERN AND SOUTH CENTRAL KENTUCKY

CITY           SKY/WX    TMP DP  RH WIND       PRES   REMARKS
PADUCAH        PTSUNNY   68  49  50 S8        30.16R
HENDERSON      MOSUNNY   64  51  62 S8        30.20R
OWENSBORO      CLOUDY    62  52  69 S9        30.22R
HOPKINSVILLE   SUNNY     63  48  59 S7        30.21S
BOWLING GREEN  CLOUDY    61  55  81 CALM      30.25S
GLASGOW        PTSUNNY   66  50  57 S3        30.26S
$$

KYZ024-025-028>034-038-045-046-053-211600-
NORTH CENTRAL KENTUCKY

CITY           SKY/WX    TMP DP  RH WIND       PRES   REMARKS
LOUISVILLE/SDF PTSUNNY   65  53  65 S6        30.24S
LOUISVILLE/LOU MOSUNNY   65  53  65 S8        30.25S
FORT KNOX      MOSUNNY   64  52  64 S8        30.23S
$$

KYZ035>037-039>044-047>052-055>060-089>105-211600-
NORTHEAST KENTUCKY

CITY           SKY/WX    TMP DP  RH WIND       PRES   REMARKS
LEXINGTON      MOSUNNY   68  53  58 S7        30.28S
COVINGTON      PTSUNNY   67  53  61 SW8       30.25S
FRANKFORT      CLOUDY    67  52  58 S7        30.26R
$$

KYZ054-064>069-076>088-106>120-211600-
SOUTHEAST KENTUCKY

CITY           SKY/WX    TMP DP  RH WIND       PRES   REMARKS
JACKSON        MOSUNNY   62  52  69 VRB3      30.31R
LONDON         CLOUDY    61  52  72 CALM      30.31S
SOMERSET       MOSUNNY   61  52  72 CALM      30.31S
MIDDLESBORO    MOSUNNY   52  51  95 CALM      30.34S
MONTICELLO     CLOUDY    66  53  63 NE8       30.31S
$$





USA.gov is the U.S. government's official web portal to all federal, state and local government web resources and services.